Els Cortals - Les Guilleries





Hora UTC 14:50
Temperatura 26.3 ºC
Humitat 58.0 %
Pressió 1013.7 hPa
Pluja 0.2 mm
Velocitat vent 3.2 km/h
Direcció vent SW
Radiació solar 636.0 W/m²

Dades diàries 2020-07-05



Hora UTC (hivern +1h; estiu +2h)
Temperatura (ºC) Humitat (%) Pressió (hPa) Velocitat vent (km/h) Precipitació (mm) Radiació solar (W/m²)
Hora UTC Aire Humitat Pressió Vel. Dir. Vel. Max Dir. Intent. màx 5 min. Rad. Sol.
00:05 15.7 93.0 1016.8 3.2 NNW 3.2 0.0 0.0
00:10 15.7 93.0 1016.8 0.0 NW 8.0 0.0 0.0
00:15 15.6 93.0 1016.7 1.6 W 6.4 0.0 0.0
00:20 15.7 93.0 1016.7 0.0 SW 11.3 0.0 0.0
00:25 15.7 93.0 1016.6 0.0 W 11.3 0.0 0.0
00:30 15.7 93.0 1016.5 1.6 W 8.0 0.0 0.0
00:35 15.7 93.0 1016.5 1.6 NW 8.0 0.0 0.0
00:40 15.7 93.0 1016.4 4.8 NW 9.7 0.0 0.0
00:45 15.7 93.0 1016.3 6.4 NNW 11.3 0.0 0.0
00:50 15.6 94.0 1016.3 1.6 NW 9.7 0.0 0.0
00:55 15.5 94.0 1016.2 6.4 NW 9.7 0.0 0.0
01:00 15.4 94.0 1016.2 6.4 NW 9.7 0.0 0.0
01:05 15.4 94.0 1016.1 6.4 NW 9.7 0.0 0.0
01:10 15.3 94.0 1016.2 8.0 NW 11.3 0.0 0.0
01:15 15.3 93.0 1016.2 1.6 NW 9.7 0.0 0.0
01:20 15.2 93.0 1016.1 8.0 WNW 9.7 0.0 0.0
01:25 15.2 93.0 1016.0 9.7 NW 11.3 0.0 0.0
01:30 15.2 93.0 1016.0 1.6 NW 11.3 0.0 0.0
01:35 15.2 93.0 1016.0 9.7 NW 9.7 0.0 0.0
01:40 15.1 93.0 1015.9 9.7 NNW 11.3 0.0 0.0
01:45 15.0 92.0 1015.8 3.2 NNW 12.9 0.0 0.0
01:50 15.0 91.0 1015.8 6.4 NW 14.5 0.0 0.0
01:55 15.0 90.0 1015.7 9.7 NW 14.5 0.0 0.0
02:00 15.0 89.0 1015.6 9.7 NW 12.9 0.0 0.0
02:05 15.0 89.0 1015.6 9.7 NW 12.9 0.0 0.0
02:10 15.0 88.0 1015.6 9.7 NNW 12.9 0.0 0.0
02:15 15.0 88.0 1015.6 8.0 NNW 12.9 0.0 0.0
02:20 15.0 88.0 1015.5 9.7 NW 11.3 0.0 0.0
02:25 15.0 88.0 1015.6 8.0 NW 12.9 0.0 0.0
02:30 15.0 88.0 1015.5 8.0 NW 12.9 0.0 0.0
02:35 15.0 88.0 1015.5 9.7 NW 11.3 0.0 0.0
02:40 15.0 87.0 1015.5 8.0 NW 11.3 0.0 0.0
02:45 15.0 88.0 1015.5 1.6 NW 11.3 0.0 0.0
02:50 14.9 88.0 1015.4 6.4 NW 9.7 0.0 0.0
02:55 14.7 89.0 1015.4 0.0 NW 9.7 0.0 0.0
03:00 14.7 89.0 1015.4 1.6 W 8.0 0.0 0.0
03:05 14.6 90.0 1015.5 0.0 NW 6.4 0.0 0.0
03:10 14.6 89.0 1015.5 1.6 WNW 6.4 0.0 0.0
03:15 14.6 88.0 1015.5 1.6 WNW 6.4 0.0 0.0
03:20 14.7 86.0 1015.5 0.0 W 6.4 0.0 0.0
03:25 14.8 85.0 1015.4 0.0 W 6.4 0.0 0.0
03:30 14.9 85.0 1015.5 0.0 W 0.0 0.0 0.0
03:35 15.0 86.0 1015.5 0.0 W 0.0 0.0 0.0
03:40 15.0 85.0 1015.4 0.0 W 0.0 0.0 0.0
03:45 15.0 85.0 1015.5 0.0 W 0.0 0.0 0.0
03:50 14.9 85.0 1015.5 0.0 W 0.0 0.0 0.0
03:55 14.8 84.0 1015.5 0.0 W 0.0 0.0 0.0
04:00 14.8 84.0 1015.5 0.0 W 0.0 0.0 0.0
04:05 14.9 83.0 1015.5 0.0 W 0.0 0.0 0.0
04:10 15.0 82.0 1015.6 0.0 W 1.6 0.0 0.0
04:15 15.0 82.0 1015.6 0.0 W 1.6 0.0 0.0
04:20 15.0 83.0 1015.6 0.0 W 0.0 0.0 0.0
04:25 15.0 83.0 1015.5 0.0 W 0.0 0.0 5.0
04:30 15.0 82.0 1015.5 0.0 W 0.0 0.0 5.0
04:35 15.0 83.0 1015.6 0.0 W 0.0 0.0 7.0
04:40 15.0 83.0 1015.6 0.0 W 0.0 0.0 9.0
04:45 15.1 83.0 1015.6 0.0 W 0.0 0.0 11.0
04:50 15.2 83.0 1015.5 0.0 W 0.0 0.0 12.0
04:55 15.3 83.0 1015.6 0.0 W 0.0 0.0 14.0
05:00 15.4 83.0 1015.6 0.0 W 0.0 0.0 16.0
05:05 15.6 82.0 1015.7 0.0 W 0.0 0.0 16.0
05:10 15.9 80.0 1015.6 0.0 W 0.0 0.0 18.0
05:15 16.2 79.0 1015.7 0.0 W 0.0 0.0 19.0
05:20 16.6 76.0 1015.7 0.0 W 0.0 0.0 19.0
05:25 16.9 75.0 1015.7 0.0 W 0.0 0.0 21.0
05:30 17.3 74.0 1015.7 0.0 W 0.0 0.0 21.0
05:35 17.5 76.0 1015.7 0.0 W 0.0 0.0 100.0
05:40 17.7 77.0 1015.7 0.0 W 0.0 0.3 123.0
05:45 17.9 73.0 1015.7 0.0 W 0.0 0.0 142.0
05:50 18.3 72.0 1015.7 0.0 W 0.0 0.0 167.0
05:55 18.7 76.0 1015.8 0.0 W 0.0 0.0 186.0
06:00 19.4 75.0 1015.7 0.0 W 0.0 0.0 199.0
06:05 19.9 71.0 1015.8 0.0 W 0.0 0.0 220.0
06:10 20.3 65.0 1015.7 0.0 S 3.2 0.0 248.0
06:15 20.6 67.0 1015.7 0.0 SE 3.2 0.0 278.0
06:20 20.8 64.0 1015.8 0.0 SE 3.2 0.0 311.0
06:25 20.9 65.0 1015.9 0.0 ESE 8.0 0.0 304.0
06:30 21.1 63.0 1015.9 0.0 SSE 8.0 0.0 304.0
06:35 21.3 62.0 1015.9 4.8 E 6.4 0.0 309.0
06:40 21.4 63.0 1016.0 0.0 E 6.4 0.0 329.0
06:45 21.7 62.0 1015.9 0.0 E 3.2 0.0 364.0
06:50 21.8 65.0 1016.1 0.0 E 3.2 0.0 394.0
06:55 21.9 57.0 1016.2 0.0 ENE 3.2 0.0 410.0
07:00 22.1 59.0 1016.1 0.0 ESE 4.8 0.0 422.0
07:05 22.2 57.0 1016.1 0.0 E 6.4 0.0 239.0
07:10 22.3 59.0 1016.1 0.0 ENE 3.2 0.0 445.0
07:15 22.4 62.0 1016.2 0.0 ESE 3.2 0.0 455.0
07:20 22.4 57.0 1016.2 0.0 ESE 4.8 0.0 464.0
07:25 22.5 61.0 1016.2 0.0 ESE 6.4 0.0 476.0
07:30 22.5 58.0 1016.2 3.2 ENE 6.4 0.0 487.0
07:35 22.6 60.0 1016.2 3.2 ESE 4.8 0.0 497.0
07:40 22.5 61.0 1016.3 3.2 NE 4.8 0.0 508.0
07:45 22.5 61.0 1016.3 0.0 ENE 4.8 0.0 519.0
07:50 22.5 61.0 1016.2 0.0 ENE 6.4 0.0 527.0
07:55 22.6 65.0 1016.2 3.2 E 6.4 0.0 536.0
08:00 22.7 60.0 1016.2 1.6 E 6.4 0.0 545.0
08:05 22.7 56.0 1016.1 0.0 E 6.4 0.0 547.0
08:10 22.9 62.0 1016.1 0.0 ESE 6.4 0.0 545.0
08:15 23.1 65.0 1016.0 0.0 ENE 6.4 0.0 540.0
08:20 23.1 67.0 1016.0 0.0 E 6.4 0.0 534.0
08:25 22.9 66.0 1016.0 3.2 E 4.8 0.0 534.0
08:30 22.9 68.0 1016.0 0.0 E 4.8 0.0 533.0
08:35 23.0 67.0 1016.0 0.0 E 6.4 0.0 534.0
08:40 23.1 66.0 1015.9 0.0 N 3.2 0.0 534.0
08:45 23.2 62.0 1015.8 0.0 ESE 1.6 0.0 536.0
08:50 23.3 62.0 1015.7 8.0 NE 11.3 0.0 538.0
08:55 23.2 63.0 1015.7 0.0 SE 11.3 0.0 540.0
09:00 23.3 69.0 1015.6 0.0 SSE 9.7 0.0 540.0
09:05 23.4 67.0 1015.6 4.8 ENE 9.7 0.0 547.0
09:10 23.5 68.0 1015.6 0.0 E 9.7 0.0 552.0
09:15 23.7 67.0 1015.6 6.4 NW 8.0 0.0 561.0
09:20 23.7 58.0 1015.7 0.0 SSW 9.7 0.0 564.0
09:25 23.8 68.0 1015.6 3.2 ENE 9.7 0.0 577.0
09:30 23.9 62.0 1015.7 0.0 NW 6.4 0.0 589.0
09:35 23.8 61.0 1015.7 0.0 S 6.4 0.0 610.0
09:40 24.0 70.0 1015.7 1.6 ENE 8.0 0.0 636.0
09:45 24.1 70.0 1015.7 0.0 E 8.0 0.0 668.0
09:50 24.1 70.0 1015.7 3.2 E 8.0 0.0 698.0
09:55 23.9 72.0 1015.7 1.6 SE 9.7 0.0 721.0
10:00 23.8 70.0 1015.6 0.0 S 9.7 0.0 735.0
10:05 23.9 68.0 1015.5 4.8 E 9.7 0.0 742.0
10:10 23.7 61.0 1015.5 1.6 WSW 11.3 0.0 747.0
10:15 23.7 65.0 1015.5 3.2 S 11.3 0.0 751.0
10:20 23.7 64.0 1015.5 0.0 S 9.7 0.0 759.0
10:25 23.7 63.0 1015.5 3.2 SSW 12.9 0.0 765.0
10:30 23.8 60.0 1015.5 11.3 SSE 11.3 0.0 768.0
10:35 23.7 60.0 1015.5 3.2 S 12.9 0.0 772.0
10:40 23.9 55.0 1015.4 3.2 SSW 11.3 0.0 779.0
10:45 23.9 56.0 1015.5 8.0 S 20.9 0.0 780.0
10:50 23.9 54.0 1015.4 11.3 SSW 20.9 0.0 788.0
10:55 24.3 52.0 1015.4 0.0 SE 12.9 0.0 788.0
11:00 24.6 52.0 1015.4 0.0 SSW 14.5 0.0 793.0
11:05 24.6 49.0 1015.4 4.8 SSW 16.1 0.0 793.0
11:10 24.7 53.0 1015.4 11.3 S 16.1 0.0 793.0
11:15 24.9 50.0 1015.4 1.6 W 16.1 0.0 795.0
11:20 24.9 50.0 1015.3 8.0 NNW 14.5 0.0 796.0
11:25 25.1 51.0 1015.3 4.8 SW 14.5 0.0 798.0
11:30 25.1 52.0 1015.3 6.4 SW 14.5 0.0 798.0
11:35 25.1 52.0 1015.3 9.7 SSW 12.9 0.0 796.0
11:40 24.9 55.0 1015.3 0.0 NW 17.7 0.0 793.0
11:45 25.0 55.0 1015.2 8.0 SSW 19.3 0.0 795.0
11:50 24.8 53.0 1015.2 0.0 SW 19.3 0.0 793.0
11:55 24.8 53.0 1015.2 0.0 SSE 16.1 0.0 793.0
12:00 25.0 55.0 1015.3 1.6 WNW 14.5 0.0 795.0
12:05 25.3 53.0 1015.2 9.7 SSW 14.5 0.0 793.0
12:10 25.4 56.0 1015.2 6.4 NNW 16.1 0.0 793.0
12:15 25.7 51.0 1015.0 11.3 SW 16.1 0.0 791.0
12:20 25.2 55.0 1015.0 6.4 SW 16.1 0.0 788.0
12:25 25.1 57.0 1014.9 4.8 SSW 14.5 0.0 784.0
12:30 25.0 56.0 1014.9 8.0 SSW 16.1 0.0 780.0
12:35 25.0 54.0 1014.9 0.0 SE 16.1 0.0 780.0
12:40 25.2 55.0 1014.9 8.0 SW 14.5 0.0 777.0
12:45 25.3 53.0 1014.9 1.6 SW 14.5 0.0 772.0
12:50 25.6 55.0 1014.8 1.6 ESE 11.3 0.0 768.0
12:55 25.8 54.0 1014.8 9.7 SW 11.3 0.0 768.0
13:00 25.8 54.0 1014.7 3.2 SW 16.1 0.0 765.0
13:05 25.8 54.0 1014.6 12.9 SSW 16.1 0.0 758.0
13:10 25.7 52.0 1014.6 0.0 SW 16.1 0.0 754.0
13:15 25.7 54.0 1014.6 1.6 NW 14.5 0.0 747.0
13:20 25.9 54.0 1014.5 11.3 WSW 12.9 0.0 749.0
13:25 25.9 54.0 1014.5 3.2 SSW 12.9 0.0 742.0
13:30 26.1 53.0 1014.4 3.2 SSW 12.9 0.0 735.0
13:35 26.2 57.0 1014.2 0.0 S 14.5 0.0 731.0
13:40 26.3 56.0 1014.3 0.0 SW 9.7 0.0 726.0
13:45 26.6 56.0 1014.3 1.6 SSW 11.3 0.0 717.0
13:50 26.5 53.0 1014.2 8.0 SW 12.9 0.0 710.0
13:55 26.6 55.0 1014.0 9.7 WNW 12.9 0.0 707.0
14:00 26.8 56.0 1013.7 0.0 NNE 14.5 0.0 698.0
14:05 26.8 54.0 1013.7 9.7 NE 12.9 0.0 691.0
14:10 26.4 58.0 1013.7 3.2 S 11.3 0.0 687.0
14:15 26.4 56.0 1013.7 0.0 S 12.9 0.0 675.0
14:20 26.6 56.0 1013.7 1.6 SSW 14.5 0.0 668.0
14:25 26.6 55.0 1013.6 6.4 SSW 14.5 0.0 668.0
14:30 26.6 56.0 1013.6 3.2 NNW 12.9 0.0 659.0
14:35 26.6 58.0 1013.7 4.8 SSW 12.9 0.0 645.0
14:40 26.6 59.0 1013.6 8.0 SW 14.5 0.0 638.0
14:45 26.4 57.0 1013.7 8.0 SSW 14.5 0.0 647.0
14:50 26.3 58.0 1013.7 3.2 SW 12.9 0.0 636.0
Màxima 26.8 94.0 1016.8 12.9 SSW 20.9 0.3 798.0
Mínima 14.6 49.0 1013.6
Total 0.3